Regional Weather Roundup
Issued by NWS Charleston, SC

Home | Current Version | Previous Version | Text Only | Print | Product List | Glossary On
Versions: 1 2 3 4 5 6 7 8 9 10 11 12 13 14 15 16 17 18 19 20 21 22 23 24 25 26 27 28 29 30 31 32 33 34 35 36 37 38 39 40 41 42 43 44 45 46 47 48 49 50
000
ASUS42 KCHS 010727
RWRCHS
REGIONAL WEATHER ROUNDUP
NATIONAL WEATHER SERVICE CHARLESTON SC
300 AM EDT TUE SEP 01 2015

NOTE: "FAIR" INDICATES FEW OR NO CLOUDS BELOW 12,000 FEET WITH NO
SIGNIFICANT WEATHER AND/OR OBSTRUCTIONS TO VISIBILITY.

NOT ALL STATIONS ARE QUALITY CONTROLLED BY THE NATIONAL
WEATHER SERVICE. USE DATA WITH CAUTION...ESPECIALLY
DEWPOINT OBSERVATIONS.

SCZ027-030-031-034>040-042>050-010800-
...SOUTHEAST SOUTH CAROLINA...

CITY           SKY/WX    TMP DP  RH WIND       PRES   REMARKS
N CHARLESTON   PTCLDY    73  71  93 CALM      30.07F
WATERFRONT PRK   N/A     77  74  91 VRB2      30.06S
MOUNT PLEASANT FAIR      73  73 100 CALM      30.07F
JOHNS ISLAND   FAIR      73  72  94 CALM      30.07F
PINOPOLIS        N/A     79  73  83 VRB3      30.00S
MONCKS CORNER  FAIR      72  70  94 CALM      30.07F
SUMMERVILLE    FAIR      70  70 100 CALM      30.08F
BEAUFORT MCAS  CLEAR     73  72  96 CALM      30.07F FOG
BEAUFORT ARPT  FAIR      73  73 100 CALM      30.06F FOG
HILTON HEAD IS PTCLDY    73  73 100 CALM      30.08F
WALTERBORO     SUNNY     70  68  94 CALM      30.08F
ALLENDALE      FAIR      70  68  94 CALM      30.07F

...SOUTHERN MIDLANDS AND PEE DEE...

CITY           SKY/WX    TMP DP  RH WIND       PRES   REMARKS
GEORGETOWN     NOT AVBL
KINGSTREE      NOT AVBL
ORANGEBURG     CLEAR     71  68  90 CALM      30.08F
BARNWELL       FAIR      70  70 100 CALM      30.09S
AIKEN          FAIR      68  64  88 CALM      30.12F
MANNING        FAIR      68  68 100 CALM      30.08S
COLUMBIA       CLEAR     71  67  87 CALM      30.07F
SUMTER         CLEAR     71  69  92 CALM      30.06F
FLORENCE       CLEAR     69  68  96 CALM      30.07F
MYRTLE BEACH   CLEAR     72  68  88 CALM      30.08S
N MYRTLE BEACH FOG       74  73  97 W5        30.05F VSB 1/4

$$

GAZ063-065-086>088-099>101-113>116-118-119-134>141-150-010800-
...SOUTHEAST GEORGIA...

CITY           SKY/WX    TMP DP  RH WIND       PRES   REMARKS
SAVANNAH ARPT  CLEAR     73  71  93 CALM      30.07F
HUNTER AAF     MOCLDY    74  74 100 CALM      30.05F
FORT STEWART   CLOUDY    73  71  94 CALM      30.05F
STATESBORO     CLEAR     67  32  26 CALM      30.08S
SYLVANIA       SUNNY     69  69 100 CALM      30.09S
CLAXTON        NOT AVBL

...CSRA...CENTRAL AND FAR SOUTHEAST GEORGIA...

CITY           SKY/WX    TMP DP  RH WIND       PRES   REMARKS
THOMSON        CLEAR     67  67 100 CALM      30.13S
AUGUSTA-BUSH   PTCLDY    67  67 100 CALM      30.07S FOG
AUGUSTA-DANIEL CLEAR     75  69  81 CALM      30.09F
SWAINSBORO     FAIR     N/A N/A N/A CALM      30.08F
VIDALIA        CLEAR     72  70  94 CALM      30.08F
EASTMAN          N/A     69  69 100 CALM      30.10F FOG
HAZLEHURST     FAIR      75  74  99 CALM      30.06F
ALMA           CLEAR     72  71  97 NE3       30.06F
WAYCROSS       CLOUDY    78  78 100 CALM      30.05F
JESUP          PTSUNNY   79  77  94 CALM      30.06F
BAXLEY         FAIR      73  72  94 CALM      30.06F
BRUNSWICK      MOCLDY    73  73 100 CALM      30.06F
SAINT SIMONS   HVY RAIN  77  75  93 SE6       30.06S FOG

$$

SCZ027-028-034-036>038-045-046-048>050-GAZ119-141-010800-
...LAKE AND SUPPLEMENTAL COASTAL OBSERVATIONS...

STATION/POSITION TIME  TEMP    WIND        PRES    WAVE   SWELL
                       AIR SEA DIR/SP/G            HT/PER HT/PER/DIR
                 (UTC) (F)     (DEG/KT/KT) (MB)    (FT/S) (FT/S/D)
UPR LAKE MARION  NOT AVBL
WINYAH BAY       0645   74     300/  3     1017.0F
LAKE MURRAY      0700   75     300/  3/  5 1017.9F
ACE BASIN NERRS  NOT AVBL
FORT PULASKI     0700   79 83  360/  3/  3   N/A
SAPELO ISLAND    0700   77        CALM     1018.0S

$$

ANZ835-935-AMZ111-154-330-350-352-354-370-450-454-472-010800-
...C-MAN AND BUOY OBSERVATIONS...

STATION/POSITION TIME  TEMP    WIND        PRES    WAVE   SWELL
                       AIR SEA DIR/SP/G            HT/PER HT/PER/DIR
                 (UTC) (F)     (DEG/KT/KT) (MB)    (FT/S) (FT/S/D)
BUOY 41004       0650   81 82  230/  8/ 10 1017.7F   3/ 7   3/ 7
BUOY 41008       0650   82 84  140/  4/  4 1018.1F   2/ 9   2/ 90/ 9
FOLLY BEACH CMAN 0700   76     280/  3/  4 1018.4F
CAPERS NEARSHORE 0608   80     290/  4/  8 1018.6S
FRIPP NEARSHORE  0600   80      CALM  /  2 1018.4F


STATION/POSITION TIME  TEMP    WIND        PRES    WAVE   SWELL
                       AIR SEA DIR/SP/G            HT/PER HT/PER/DIR
                 (UTC) (F)     (DEG/KT/KT) (MB)    (FT/S) (FT/S/D)
5E ST. MARYS GA  0621      85                N/A     2/ 9
FRYING PAN BUOY  0650   80 81  250/ 12/ 14 1017.9F   3/ 6   3/180/ 6
BUOY 41025       0650   81 84  190/ 10/ 12 1016.6F   4/ 5   3/160/ 5
CAPE LOOKOUT NC  0700   78     260/  6/  6 1016.0F
BUOY 41002       0650   84 84  230/ 12/ 14 1018.5F   4/ 7   3/200/ 7
BUOY 41010       0620   84 85  170/  8/ 10 1018.6F
ST AUGUSTINE FL  0700   82 84  190/  5/  5 1017.7F


$$


USA.gov is the U.S. government's official web portal to all federal, state and local government web resources and services.